Tracking 28348 objects as of 8-Dec-2023
HD Live streaming from Space Station
objects crossing your sky now

STARLINK-30847

Track STARLINK-30847 now!
10-day predictions
STARLINK-30847 is classified as:


NORAD ID: 58239
Int'l Code: 2023-171K
Perigee: 524.1 km
Apogee: 526.5 km
Inclination: 43.0 °
Period: 95.0 minutes
Semi major axis: 6896 km
RCS: Unknown
Launch date: November 8, 2023
Source: United States (US)
Launch site: AIR FORCE EASTERN TEST RANGE (AFETR)
Your satellite tracking list
Your tracking list is empty




NASA's NSSDC Master Catalog

Two Line Element Set (TLE):
1 58239U 23171K   23341.83335648  .00019104  00000-0  98784-3 0  9998
2 58239  43.0002  84.4803 0001752 287.5270 313.8302 15.15933870  5873
Source of the keplerian elements: AFSPC